TimeCST,TemperatureF,Dew PointF,Humidity,Sea Level PressureIn,VisibilityMPH,Wind Direction,Wind SpeedMPH,Gust SpeedMPH,PrecipitationIn,Events,Conditions,WindDirDegrees,DateUTC
12:52 AM,12.9,8.1,81,30.20,10.0,East,3.5,-,N/A,,Clear,90,2013-01-16 06:52:00
1:52 AM,10.9,7.0,84,30.19,10.0,East,3.5,-,N/A,,Clear,90,2013-01-16 07:52:00
2:52 AM,10.9,8.1,88,30.17,10.0,East,3.5,-,N/A,,Clear,90,2013-01-16 08:52:00
3:52 AM,14.0,8.1,77,30.16,10.0,Calm,Calm,-,N/A,,Clear,0,2013-01-16 09:52:00
4:52 AM,15.1,9.0,77,30.13,10.0,Calm,Calm,-,N/A,,Clear,0,2013-01-16 10:52:00
5:52 AM,17.1,10.0,74,30.12,10.0,Calm,Calm,-,N/A,,Clear,0,2013-01-16 11:52:00
6:52 AM,17.1,10.0,74,30.10,10.0,Calm,Calm,-,N/A,,Clear,0,2013-01-16 12:52:00
7:52 AM,18.0,10.9,74,30.10,9.0,Calm,Calm,-,N/A,,Clear,0,2013-01-16 13:52:00
8:52 AM,28.0,18.0,66,30.11,10.0,SW,5.8,-,N/A,,Scattered Clouds,230,2013-01-16 14:52:00
9:52 AM,32.0,19.0,59,30.11,10.0,SW,8.1,-,N/A,,Mostly Cloudy,220,2013-01-16 15:52:00
10:52 AM,35.1,18.0,50,30.10,10.0,SW,10.4,-,N/A,,Mostly Cloudy,230,2013-01-16 16:52:00
11:52 AM,39.0,21.0,49,30.08,10.0,SW,10.4,-,N/A,,Clear,230,2013-01-16 17:52:00
12:52 PM,43.0,21.9,43,30.06,10.0,SSW,12.7,-,N/A,,Clear,210,2013-01-16 18:52:00
1:52 PM,46.0,24.1,42,30.06,10.0,WSW,9.2,-,N/A,,Mostly Cloudy,240,2013-01-16 19:52:00
2:52 PM,48.9,26.1,41,30.05,10.0,West,8.1,-,N/A,,Partly Cloudy,270,2013-01-16 20:52:00
3:52 PM,48.9,28.0,44,30.06,10.0,NW,6.9,-,N/A,,Clear,310,2013-01-16 21:52:00
4:52 PM,45.0,28.0,52,30.08,10.0,WNW,3.5,-,N/A,,Clear,290,2013-01-16 22:52:00
5:52 PM,36.0,26.1,67,30.10,10.0,Calm,Calm,-,N/A,,Clear,0,2013-01-16 23:52:00
6:52 PM,30.9,24.1,76,30.13,10.0,Calm,Calm,-,N/A,,Clear,0,2013-01-17 00:52:00
7:52 PM,25.0,21.0,85,30.15,10.0,Calm,Calm,-,N/A,,Clear,0,2013-01-17 01:52:00
8:52 PM,26.1,21.9,84,30.15,10.0,NNW,3.5,-,N/A,,Clear,330,2013-01-17 02:52:00
9:52 PM,24.1,21.0,88,30.16,10.0,NW,5.8,-,N/A,,Clear,310,2013-01-17 03:52:00
10:52 PM,25.0,21.9,88,30.19,10.0,WNW,6.9,-,N/A,,Clear,300,2013-01-17 04:52:00
11:52 PM,32.0,27.0,82,30.23,10.0,NNW,9.2,-,N/A,,Clear,340,2013-01-17 05:52:00